Location: ???????
(54.6339°N, 39.4245°E)
Time: 11:19:26
(UTC+00:00)

CZ-4C R/B - Pass Details

Date: 19 May 2025
Orbit: 425 x 537 km, 98.0° (Epoch: 14 June)

Event Time Altitude Azimuth Distance (km) Brightness Sun altitude
Rises 19:36:43 0° 19° (NNE) 2,627 7.6 -12.3°
Reaches altitude 10° 19:38:55 10° 25° (NNE) 1,717 6.4 -12.4°
Maximum altitude 19:42:28 45° 100° (E) 674 3.5 -12.6°
Enters shadow 19:44:28 22° 163° (SSE) 1,102 4.2 -12.7°
